Wind_Speed
52 54 54 54 55 55 55 55 53 52 51 49 48 47 46 45 44 42 41 39 38 37 35 34 32 31 29 27 26 25 24 23 23 23 23 23 24 25 26 27 28 29 31
53 54 53 54 55 55 55 54 53 52 51 50 49 48 47 46 44 43 42 41 39 37 36 35 33 32 30 29 28 26 25 25 24 24 24 25 25 26 27 28 29 31 32
52 54 53 54 54 54 54 54 53 53 52 51 50 49 48 47 45 43 42 41 40 38 37 36 35 33 32 30 29 28 27 26 26 26 26 26 27 28 28 30 31 32 34
51 53 54 54 54 53 53 55 54 53 53 52 51 49 48 46 45 44 43 42 41 39 38 37 35 34 32 31 30 29 28 28 27 28 28 28 29 30 30 31 32 33 35
51 52 54 54 53 54 54 55 54 53 53 53 51 50 49 47 46 45 44 43 42 40 39 38 36 35 34 33 32 31 30 29 29 29 30 30 31 31 32 32 33 34 36
50 51 53 54 54 54 55 55 55 54 53 52 51 50 49 48 47 46 45 44 42 41 40 39 37 36 35 34 33 32 32 31 31 31 31 32 32 33 33 34 34 35 37
47 50 52 53 54 54 54 55 55 54 53 52 52 50 49 48 48 46 45 44 43 42 40 39 38 38 36 35 35 34 33 33 32 33 33 33 34 34 35 35 36 37 38
46 48 50 52 54 54 54 55 55 53 52 52 51 51 50 49 48 47 46 45 44 43 42 41 40 39 38 37 36 36 35 34 34 34 35 35 35 36 36 36 37 38 39
45 47 50 52 54 55 55 55 55 53 53 52 52 51 50 49 48 48 47 46 45 44 43 42 41 41 39 38 37 37 36 36 36 36 36 36 36 37 37 38 39 39 40
45 46 49 51 53 55 55 56 56 56 53 52 51 51 49 49 48 48 47 46 45 44 44 43 42 42 41 40 39 38 37 37 37 37 37 37 37 37 38 39 40 40 41
44 46 49 51 52 54 55 56 56 55 54 52 51 51 50 50 50 49 47 46 46 45 44 44 43 42 41 41 40 39 39 39 39 39 39 38 38 38 39 40 40 41 42
43 45 48 51 53 55 56 56 56 54 53 52 52 52 51 51 51 49 48 47 46 46 45 45 44 43 42 41 41 40 40 40 40 40 39 39 39 40 40 41 41 42 42
43 43 46 49 53 56 56 57 56 54 53 52 52 52 52 51 51 50 48 48 47 47 46 45 45 44 43 43 42 42 41 41 41 40 40 40 40 41 41 41 42 42 42
42 43 45 47 51 55 55 57 56 55 55 53 53 53 52 51 50 50 50 50 49 48 47 46 46 46 44 44 43 43 42 42 41 41 40 40 40 41 41 42 42 42 43
42 43 44 47 50 53 54 55 56 56 55 55 54 54 53 52 51 50 50 51 50 49 48 48 48 47 46 45 44 43 43 42 41 41 41 41 41 41 41 41 42 42 43
43 44 45 46 48 51 54 55 55 55 56 56 55 54 53 53 52 52 51 51 50 49 49 49 49 48 46 46 45 44 44 43 42 41 41 40 41 41 41 41 42 42 43
43 45 45 47 48 50 53 55 55 54 54 54 55 55 54 54 53 53 52 51 50 49 50 50 49 48 47 45 44 44 44 43 42 42 42 41 41 41 40 41 42 42 42
43 46 47 48 48 50 52 55 56 55 55 55 55 55 55 54 53 53 52 51 50 49 49 48 48 48 47 46 44 43 43 43 42 42 42 41 40 40 40 41 42 42 42
43 45 47 49 48 49 51 53 54 55 55 55 54 54 55 55 53 52 51 51 50 49 49 48 47 46 46 46 45 44 43 42 41 41 41 41 40 40 41 42 42 43 43
43 45 46 48 49 49 50 51 53 55 55 55 55 54 55 55 55 53 52 51 50 49 48 48 47 47 46 45 44 44 43 42 41 40 40 40 40 41 41 42 42 42 42
41 44 45 47 48 49 50 50 51 53 55 54 54 54 54 54 54 53 53 52 51 50 48 47 47 46 45 44 43 42 42 42 41 41 40 40 41 41 42 42 41 41 41
39 41 43 46 48 49 50 50 51 52 54 54 53 54 54 53 53 52 52 51 51 51 49 48 47 46 45 43 43 42 42 41 40 40 40 41 41 41 41 41 40 40 41
39 41 42 44 47 49 50 51 51 52 53 53 53 53 54 54 53 52 51 50 49 49 49 47 44 43 43 43 42 41 41 39 39 39 40 41 41 40 40 39 39 40 41
37 40 42 43 46 48 49 51 51 52 52 52 53 53 53 53 52 51 50 50 48 48 48 47 46 44 43 42 42 40 40 39 39 39 40 40 40 39 38 38 38 39 40
36 38 40 42 44 46 49 49 49 51 52 52 52 52 52 52 51 50 49 49 48 46 46 47 46 45 43 43 42 41 40 40 40 40 40 40 39 38 37 37 38 38 38
36 37 39 40 41 43 46 48 47 48 49 50 51 51 50 50 50 49 48 47 47 45 44 44 46 46 45 43 42 41 41 41 41 41 40 39 38 37 37 37 37 37 37
Wind_Direction
217 216 215 215 214 215 215 215 215 215 216 218 220 220 220 221 221 222 222 223 225 226 228 229 231 235 239 243 247 251 256 262 268 274 278 283 287 292 296 300 304 307 310
216 215 215 215 214 215 215 214 215 215 217 218 220 221 221 221 222 222 222 224 225 227 229 230 232 236 239 244 247 251 256 262 268 273 278 282 286 290 295 299 302 305 308
216 215 214 214 215 215 215 215 215 216 216 218 219 220 221 222 223 223 223 224 226 228 229 231 233 236 240 244 247 251 257 262 267 272 277 281 285 289 293 297 301 304 307
216 215 214 214 215 215 214 215 216 216 216 217 219 220 222 223 223 223 224 225 226 228 230 232 234 237 240 244 248 252 257 263 267 272 276 280 284 289 292 296 300 303 306
217 216 215 215 216 215 214 215 216 216 216 217 218 220 222 223 223 224 224 225 227 229 231 233 235 238 241 245 248 252 258 263 268 271 275 279 283 287 291 294 298 302 305
217 217 217 216 216 215 214 215 216 216 217 217 217 219 221 223 224 225 225 227 228 230 232 233 236 239 242 245 249 253 258 263 267 272 276 279 283 286 290 293 297 301 304
218 218 218 216 216 216 214 215 215 216 217 218 219 220 222 223 225 226 226 227 229 231 233 234 236 239 243 246 249 253 258 263 267 272 276 279 282 286 289 292 295 299 303
219 218 218 217 215 216 215 215 215 216 218 219 219 220 223 224 226 227 227 229 230 231 233 235 237 240 243 247 251 254 258 263 267 272 275 279 282 285 289 292 295 298 301
219 219 219 218 216 216 216 216 216 217 218 219 220 221 223 225 227 228 229 230 231 232 234 235 238 241 244 247 251 255 259 263 267 271 275 278 282 285 288 291 294 298 301
221 220 219 218 217 217 217 216 217 218 218 219 220 222 224 226 228 229 230 230 231 233 235 237 239 242 245 248 251 256 260 263 266 271 274 277 281 285 287 290 293 297 299
222 222 220 219 218 218 218 217 217 219 219 220 221 223 224 226 228 230 230 231 231 233 235 237 240 243 246 249 252 256 259 263 267 271 274 277 280 284 287 289 293 295 298
222 223 223 221 221 220 220 220 219 220 220 220 222 223 225 227 228 230 231 232 232 234 236 238 241 244 247 250 253 257 260 263 267 270 273 277 280 283 286 289 292 294 297
224 224 223 222 222 221 221 220 221 221 222 222 222 223 225 228 229 229 230 232 234 236 237 240 243 246 248 251 254 257 260 264 267 270 274 277 280 283 286 289 291 294 296
224 225 224 223 223 222 223 222 222 223 224 224 224 224 225 227 228 230 231 233 235 237 239 241 243 246 248 251 255 258 261 264 268 271 274 277 281 283 286 288 291 293 296
225 224 225 225 224 224 224 223 224 224 225 224 225 225 226 227 228 230 232 234 236 238 239 242 244 246 249 253 256 259 261 264 268 271 274 278 280 283 286 288 290 293 296
227 226 226 225 225 224 224 224 225 225 224 224 225 226 227 228 230 231 232 235 237 239 241 242 245 247 251 254 256 258 261 264 267 271 274 277 280 282 285 288 290 293 295
230 228 227 226 227 227 226 225 225 226 226 224 225 226 227 229 230 232 234 236 238 240 242 244 245 248 250 253 256 258 261 264 267 270 273 275 278 281 285 288 291 292 296
231 229 229 228 227 227 228 228 228 228 227 226 227 227 227 228 230 232 234 237 239 241 243 244 246 248 250 252 255 258 260 262 265 268 271 275 278 281 284 288 290 292 296
234 231 229 228 228 228 227 228 228 229 227 227 227 228 228 229 230 232 234 237 239 241 243 245 246 249 251 253 255 258 260 262 265 269 272 276 278 281 284 287 288 291 295
234 232 229 228 228 227 227 227 227 227 227 228 228 229 230 229 230 232 234 237 239 241 244 245 246 248 250 252 255 257 259 263 266 269 272 275 278 281 284 286 289 292 295
235 232 230 227 227 227 227 226 226 226 226 227 228 229 230 230 231 232 234 236 238 240 242 244 246 248 250 252 255 257 260 262 265 268 271 275 279 280 282 286 289 292 295
236 233 230 228 227 227 227 226 226 226 226 226 227 229 230 230 231 232 234 235 237 239 241 243 246 248 250 253 256 258 260 262 264 267 271 274 278 280 282 285 289 292 295
238 234 231 229 228 227 227 227 227 227 226 227 227 229 230 230 231 232 233 235 236 239 240 242 244 247 250 253 256 258 259 261 264 267 270 274 276 278 282 286 290 293 295
238 235 232 230 229 228 228 228 228 228 227 227 228 229 230 230 231 233 234 235 238 240 241 242 243 245 249 253 256 259 259 261 264 268 270 273 275 277 282 286 291 294 296
241 237 235 232 230 228 228 227 227 227 226 226 226 227 229 229 231 233 235 236 239 240 242 243 244 246 248 252 256 256 258 261 264 267 271 273 275 279 284 288 291 294 296
242 238 235 233 231 229 228 227 226 225 225 226 226 226 227 228 230 231 233 235 237 239 241 243 244 246 249 251 252 253 256 260 263 266 270 274 277 281 284 288 291 294 296
Height
5661 5668 5676 5685 5693 5701 5710 5718 5726 5733 5740 5747 5753 5759 5765 5770 5776 5781 5786 5790 5794 5798 5802 5805 5808 5811 5813 5815 5816 5817 5817 5817 5817 5816 5815 5814 5812 5810 5808 5805 5802 5799 5796
5651 5659 5668 5676 5684 5693 5701 5709 5717 5725 5732 5739 5746 5752 5757 5763 5768 5773 5778 5783 5787 5791 5795 5799 5802 5805 5807 5809 5810 5811 5812 5812 5811 5811 5810 5808 5807 5805 5802 5799 5797 5793 5790
5642 5650 5659 5667 5675 5684 5693 5701 5709 5716 5724 5730 5736 5743 5749 5755 5761 5766 5771 5776 5780 5785 5789 5792 5795 5798 5801 5802 5804 5805 5806 5806 5805 5805 5804 5803 5801 5799 5797 5794 5791 5787 5783
5634 5641 5650 5658 5667 5676 5684 5692 5700 5708 5715 5722 5729 5736 5743 5749 5755 5759 5764 5769 5773 5778 5781 5785 5789 5791 5794 5796 5797 5798 5799 5799 5799 5798 5797 5796 5795 5793 5791 5788 5784 5781 5777
5626 5633 5641 5650 5658 5666 5675 5683 5691 5699 5706 5714 5721 5728 5735 5741 5746 5751 5756 5761 5766 5770 5774 5778 5782 5785 5787 5789 5791 5792 5793 5793 5793 5792 5791 5790 5788 5786 5784 5781 5778 5774 5770
5620 5627 5634 5641 5649 5657 5666 5675 5683 5691 5698 5706 5713 5720 5727 5733 5738 5743 5749 5754 5758 5763 5767 5771 5774 5777 5780 5782 5783 5785 5786 5786 5786 5785 5784 5783 5781 5779 5777 5774 5771 5767 5763
5612 5619 5626 5634 5642 5649 5658 5667 5675 5683 5691 5698 5705 5713 5719 5724 5730 5735 5740 5746 5751 5755 5760 5763 5767 5770 5772 5774 5776 5777 5778 5779 5779 5778 5777 5776 5774 5772 5770 5767 5764 5760 5756
5605 5611 5618 5626 5634 5642 5650 5658 5666 5675 5683 5690 5698 5704 5710 5716 5721 5727 5732 5738 5743 5747 5751 5755 5758 5762 5764 5766 5768 5770 5771 5771 5771 5771 5770 5769 5767 5765 5762 5760 5756 5753 5749
5597 5603 5610 5618 5626 5634 5642 5650 5658 5667 5675 5682 5689 5696 5702 5708 5714 5719 5724 5729 5734 5738 5742 5746 5750 5753 5756 5759 5760 5762 5763 5764 5764 5763 5762 5761 5759 5757 5754 5751 5748 5745 5741
5590 5596 5602 5609 5617 5625 5633 5641 5650 5658 5665 5673 5680 5687 5693 5699 5705 5710 5716 5721 5725 5729 5734 5738 5742 5745 5748 5750 5752 5754 5755 5755 5755 5755 5754 5753 5751 5749 5746 5743 5740 5736 5732
5583 5588 5594 5601 5608 5616 5624 5633 5641 5649 5656 5664 5671 5678 5684 5690 5696 5701 5707 5712 5716 5721 5725 5730 5733 5737 5740 5742 5744 5746 5747 5747 5747 5747 5746 5745 5743 5741 5738 5735 5732 5728 5724
5575 5581 5586 5593 5600 5608 5615 5623 5631 5639 5647 5654 5662 5669 5675 5681 5687 5693 5698 5703 5708 5712 5717 5721 5725 5728 5731 5733 5736 5737 5738 5738 5738 5738 5737 5736 5734 5732 5729 5726 5723 5719 5715
5566 5572 5578 5584 5591 5598 5606 5614 5622 5629 5637 5644 5651 5659 5665 5672 5678 5684 5689 5694 5699 5703 5708 5712 5716 5719 5722 5725 5727 5728 5729 5730 5730 5729 5729 5727 5726 5724 5721 5718 5714 5710 5706
5558 5563 5569 5575 5582 5589 5596 5604 5612 5620 5627 5634 5641 5649 5656 5662 5668 5674 5679 5685 5689 5694 5699 5703 5706 5710 5713 5715 5717 5719 5720 5721 5721 5720 5720 5719 5717 5715 5712 5709 5706 5702 5698
5548 5554 5560 5566 5572 5579 5586 5594 5601 5610 5617 5624 5631 5639 5646 5652 5658 5664 5670 5675 5680 5685 5689 5693 5697 5700 5703 5706 5708 5710 5711 5711 5711 5711 5711 5710 5708 5706 5703 5701 5697 5693 5689
5539 5545 5550 5556 5562 5569 5576 5583 5591 5599 5606 5613 5621 5628 5635 5641 5648 5654 5659 5664 5670 5675 5679 5683 5687 5690 5694 5697 5698 5700 5701 5702 5702 5702 5701 5700 5699 5697 5694 5691 5688 5684 5680
5530 5535 5540 5546 5552 5558 5565 5572 5580 5588 5595 5603 5610 5617 5624 5631 5637 5643 5649 5654 5660 5664 5669 5673 5677 5680 5684 5687 5689 5690 5691 5692 5692 5692 5692 5691 5689 5687 5685 5682 5679 5675 5671
5520 5525 5530 5536 5542 5548 5554 5561 5569 5576 5584 5592 5599 5606 5613 5620 5626 5632 5639 5644 5649 5654 5659 5663 5667 5670 5674 5676 5678 5680 5681 5682 5683 5683 5682 5681 5680 5678 5676 5673 5670 5666 5662
5509 5514 5519 5525 5531 5537 5543 5550 5558 5565 5573 5581 5587 5595 5602 5609 5615 5622 5628 5633 5638 5643 5648 5652 5656 5660 5663 5666 5668 5670 5671 5672 5673 5673 5673 5672 5671 5670 5667 5664 5661 5657 5653
5498 5503 5508 5514 5520 5526 5532 5539 5547 5554 5562 5569 5576 5583 5590 5597 5604 5611 5617 5622 5628 5633 5637 5641 5646 5649 5653 5656 5658 5660 5662 5663 5664 5664 5663 5663 5662 5660 5657 5654 5651 5648 5644
5487 5492 5497 5503 5509 5515 5521 5528 5535 5543 5550 5557 5565 5571 5579 5586 5593 5599 5606 5611 5617 5622 5627 5631 5635 5639 5643 5645 5648 5650 5652 5653 5653 5654 5653 5653 5652 5650 5648 5645 5642 5639 5635
5476 5481 5486 5492 5498 5504 5511 5517 5524 5531 5539 5546 5553 5561 5567 5574 5581 5588 5594 5600 5606 5610 5615 5620 5624 5628 5632 5635 5637 5640 5642 5643 5643 5644 5644 5643 5642 5640 5638 5635 5632 5629 5625
5466 5470 5474 5480 5487 5493 5499 5506 5513 5520 5527 5534 5542 5549 5555 5563 5570 5576 5583 5589 5594 5599 5604 5609 5614 5618 5622 5625 5627 5630 5631 5632 5633 5634 5634 5634 5633 5631 5628 5626 5623 5620 5616
5455 5459 5464 5469 5475 5482 5488 5495 5501 5508 5516 5523 5530 5537 5544 5551 5558 5565 5571 5578 5583 5588 5593 5599 5603 5608 5612 5615 5617 5619 5620 5622 5623 5624 5624 5623 5623 5621 5619 5617 5614 5610 5607
5445 5448 5453 5458 5464 5470 5477 5483 5490 5497 5504 5511 5518 5525 5532 5540 5547 5554 5561 5567 5573 5578 5584 5588 5593 5597 5601 5605 5607 5609 5610 5612 5613 5613 5614 5614 5613 5612 5610 5607 5605 5601 5598
5434 5437 5442 5447 5453 5459 5465 5472 5479 5486 5493 5500 5507 5514 5521 5529 5536 5543 5550 5555 5562 5567 5572 5577 5582 5586 5590 5593 5595 5598 5600 5601 5603 5603 5604 5604 5604 5602 5600 5598 5596 5592 5589